Theta_e
315 312 312 310 311 310 313 314 319 316 314 316 317 313 311 310 307 304 302 304 307 310 312 311 313 316 316 317 318 319 318 333 327 319 319 320 324 333 335 335 336 336 336 337 338 340 341 340 341 342 345 347 347 348 348 346 346 346 348 350 350 352 350 351 351 352 352 350 352 353 354 354 354 353
316 315 311 309 308 311 311 313 315 317 315 313 316 315 314 314 308 305 303 303 308 309 310 313 312 314 315 317 318 320 318 336 327 320 318 320 326 331 331 332 334 335 336 336 337 339 341 342 342 341 342 345 346 346 347 344 344 344 345 346 348 350 352 351 351 351 349 348 350 353 353 353 352 351
314 311 310 309 308 310 310 312 313 314 315 313 314 315 317 316 311 308 305 302 306 312 308 311 314 313 314 317 318 318 319 328 326 318 317 319 329 329 326 330 331 333 335 335 336 340 343 343 343 342 341 342 345 345 345 344 343 343 343 344 345 347 347 346 346 347 346 348 349 351 354 354 354 353
313 310 309 309 308 310 311 312 314 315 316 315 313 314 314 313 314 312 307 305 306 310 311 311 314 314 316 316 316 316 318 322 327 318 317 320 326 320 319 325 328 331 334 334 336 339 341 343 342 342 341 341 343 344 344 343 342 342 342 341 341 341 342 342 343 345 347 348 349 349 352 353 351 351
312 311 308 307 309 311 312 312 314 316 316 315 315 315 312 312 313 312 308 306 307 308 312 313 314 315 315 313 314 314 315 317 318 321 316 317 316 317 317 318 325 329 332 333 335 338 337 339 341 342 343 343 343 344 344 342 341 340 340 339 338 337 336 338 340 343 346 349 349 349 351 351 352 353
314 310 307 307 308 310 312 313 313 314 315 314 313 313 313 311 313 313 310 308 307 306 310 312 314 314 315 311 312 312 314 316 318 314 314 314 315 317 316 317 318 327 331 332 333 336 335 335 337 339 341 342 343 343 342 341 339 338 337 336 335 334 334 335 337 339 343 346 349 349 349 351 351 350
310 309 310 308 308 312 311 311 312 314 313 313 312 311 313 312 312 313 311 308 307 307 308 311 312 312 313 312 311 312 314 317 315 312 312 313 315 318 317 317 318 325 329 331 332 334 334 333 334 336 337 340 342 342 341 339 337 335 332 332 332 332 332 333 333 335 338 343 347 349 350 350 347 349
309 308 307 308 308 309 309 309 310 312 312 311 311 310 312 311 312 313 312 310 307 307 308 310 311 313 311 311 312 314 313 313 313 312 312 312 313 314 316 316 317 323 327 329 330 332 332 332 333 334 334 336 339 340 338 335 333 333 332 332 332 331 331 331 331 332 333 337 343 345 346 348 348 347
309 310 307 308 307 307 308 309 309 310 310 311 310 308 310 310 312 312 312 310 310 309 308 310 311 311 311 313 311 311 310 311 310 310 310 311 312 313 314 316 319 324 325 326 328 330 331 331 331 332 333 333 336 337 336 335 334 333 333 332 330 330 330 330 330 330 330 331 335 340 340 341 342 342
311 309 308 309 308 307 308 308 308 309 309 310 309 308 309 310 309 308 309 311 310 309 309 308 308 308 311 309 307 309 311 310 308 308 309 309 310 312 312 314 317 320 319 319 322 326 327 328 329 330 332 331 333 335 335 335 335 335 334 332 330 329 329 329 329 329 329 329 330 332 336 338 339 340
310 309 310 310 308 307 307 308 307 307 309 312 309 314 310 310 308 308 308 309 308 308 308 308 308 307 310 310 306 308 310 309 309 307 307 308 310 311 311 312 315 316 317 322 325 326 327 329 328 327 328 329 331 333 333 333 334 335 336 333 331 330 329 329 328 328 328 328 328 328 330 332 336 338
311 310 310 309 308 308 309 308 308 308 307 310 310 309 310 311 309 308 309 308 307 307 308 307 306 306 307 307 307 310 307 306 306 309 308 306 308 309 311 311 312 315 317 316 317 322 323 323 325 327 327 329 332 337 336 336 338 338 338 335 332 330 329 329 328 328 328 328 328 328 328 328 330 334
312 312 310 309 309 314 322 323 322 323 322 309 309 310 311 311 311 309 308 308 306 306 307 307 307 305 305 305 305 305 304 305 305 307 307 307 309 309 310 311 312 317 315 315 315 317 318 319 320 322 322 325 331 334 337 337 338 338 337 334 331 329 329 329 328 328 327 327 327 327 328 328 328 330
313 312 312 315 322 327 326 325 324 324 325 325 318 312 310 313 311 309 307 306 307 307 307 306 305 305 305 305 305 305 305 306 307 307 307 306 307 308 308 310 310 316 313 312 313 316 320 320 320 320 320 322 327 328 332 332 333 334 332 331 330 329 328 328 328 328 327 327 327 327 327 327 328 327
314 313 313 312 324 327 326 323 326 325 324 325 324 324 324 328 313 308 308 308 308 309 309 306 306 305 304 306 307 306 307 308 307 306 307 308 309 306 304 303 309 313 313 312 312 316 319 320 318 319 320 321 322 325 327 331 333 333 332 330 330 329 328 328 328 328 327 327 327 327 327 326 328 327
316 314 314 316 320 319 317 315 316 325 328 325 325 324 323 324 324 328 319 316 313 308 308 308 308 305 306 306 307 307 307 308 307 308 307 306 306 305 304 304 304 310 314 312 312 315 319 318 321 317 319 321 321 324 326 328 331 332 331 331 330 329 328 328 328 327 327 327 326 325 325 325 326 327
316 315 316 317 317 318 327 326 319 313 314 328 324 323 325 327 325 326 326 327 323 316 311 310 308 307 307 307 310 314 314 314 309 309 309 308 307 306 305 305 305 310 313 313 312 312 316 316 317 315 318 319 320 323 325 327 330 332 332 331 330 329 328 327 327 327 327 326 325 324 323 324 325 326
317 314 316 315 315 313 315 318 318 315 312 312 312 310 309 310 318 326 325 326 327 327 318 312 310 312 312 313 314 317 317 313 313 311 311 311 309 309 309 309 310 312 315 312 311 310 312 315 315 315 316 319 320 321 321 323 328 330 330 330 329 328 327 327 327 326 326 326 325 324 323 323 323 324
318 314 316 315 314 312 311 317 318 313 311 309 311 309 309 309 310 312 313 312 314 320 319 315 313 314 314 313 313 313 314 315 315 315 314 314 312 310 310 309 311 312 316 313 312 309 311 312 313 314 315 318 317 318 322 323 325 326 326 328 329 328 327 326 326 326 326 326 326 324 323 322 321 322
320 318 317 316 315 313 312 325 329 328 316 309 309 310 309 310 312 313 323 326 327 328 323 317 314 313 314 323 323 325 321 319 319 322 318 313 310 308 307 306 308 311 314 313 311 309 308 311 312 313 316 316 315 318 321 323 325 325 324 325 327 327 326 325 325 325 325 325 325 324 323 322 320 320
321 321 317 315 314 314 314 326 327 330 331 309 310 310 310 312 312 313 316 323 326 329 327 326 326 325 324 325 325 324 326 325 323 319 314 315 310 307 306 308 307 307 311 316 314 309 306 309 310 312 314 316 318 319 319 320 323 323 322 322 325 326 325 324 324 324 324 324 324 323 322 321 320 320
319 321 334 333 318 316 317 327 327 327 329 313 313 312 312 312 312 313 315 316 319 326 327 327 327 326 327 327 327 326 326 326 330 318 315 315 308 309 309 305 307 308 312 314 318 307 305 309 309 310 311 319 317 317 316 321 322 320 318 319 323 326 325 324 324 324 324 323 323 322 321 321 320 324
321 320 328 333 333 326 324 325 325 326 329 318 315 314 312 312 311 313 314 313 313 313 313 315 317 321 323 323 319 322 327 328 328 321 318 316 310 311 310 309 308 306 304 309 314 307 305 307 309 310 308 306 310 315 318 320 318 318 319 321 326 325 325 325 325 324 323 323 322 321 320 319 318 326
320 320 320 324 329 326 327 325 323 323 326 322 317 314 312 312 312 314 314 316 314 313 315 315 317 318 318 317 317 317 317 320 324 323 320 317 314 312 311 311 311 306 303 306 317 308 308 307 309 309 308 305 305 310 313 314 316 318 318 320 322 326 328 328 325 322 321 321 321 320 319 317 317 325
319 319 320 320 328 325 323 321 318 317 320 326 321 316 314 315 318 321 313 316 323 319 319 320 319 317 317 316 316 316 316 318 320 321 322 320 316 314 312 309 309 308 309 312 319 311 308 308 309 308 308 308 309 309 310 313 315 316 320 320 320 324 327 327 326 326 320 320 320 319 318 317 315 321
318 318 317 319 326 323 321 320 317 315 316 320 322 320 318 319 321 320 320 318 317 316 316 315 316 315 315 314 315 316 318 319 322 320 317 318 318 316 315 312 308 306 308 312 323 313 309 309 310 310 309 306 308 310 309 310 313 313 316 318 321 322 325 326 324 323 323 324 325 322 322 318 318 316
319 319 319 322 330 323 319 316 315 314 315 322 319 317 317 318 319 323 320 320 318 316 316 316 315 315 315 315 316 317 317 318 318 318 318 316 315 319 319 316 311 310 311 312 316 315 313 309 315 311 310 309 307 309 310 307 308 311 314 315 318 321 325 324 323 324 323 324 325 321 320 321 318 317
320 319 319 323 321 316 312 312 314 315 320 319 315 315 316 318 322 320 319 317 316 318 317 316 315 315 315 315 315 317 319 319 318 318 318 318 316 314 313 315 323 321 315 313 315 315 314 314 314 315 312 309 307 306 306 308 313 312 312 315 320 322 324 326 323 324 324 325 324 323 323 324 326 324
324 324 319 316 315 316 314 314 316 318 321 317 315 315 317 323 319 318 317 316 316 314 315 316 316 316 317 317 318 319 318 321 321 321 321 321 320 316 313 313 317 318 321 324 321 319 317 314 312 312 310 309 308 309 310 309 309 311 314 316 315 319 324 324 320 320 323 320 321 322 321 321 322 327
326 322 319 318 318 320 321 325 322 323 323 324 323 322 323 321 319 318 316 316 316 315 316 317 317 318 318 319 319 321 321 319 318 318 318 317 317 316 316 315 315 316 316 317 317 315 314 312 312 311 310 311 311 310 310 309 309 310 316 315 317 325 324 319 320 319 322 320 320 320 320 321 322 325
326 327 328 327 324 323 326 327 328 328 329 328 327 326 326 325 324 322 320 319 318 318 318 318 318 319 319 320 321 320 318 319 319 320 321 318 317 318 315 313 313 313 313 312 314 315 314 314 314 311 309 309 313 312 312 311 310 311 312 314 318 316 319 321 322 320 319 319 319 319 319 320 321 323
322 324 327 324 322 320 320 319 319 320 321 323 324 323 323 323 325 327 330 329 323 320 320 319 320 321 320 319 319 319 319 318 319 321 321 320 318 318 315 310 310 310 310 311 313 316 325 318 314 313 313 312 310 310 309 309 310 310 312 317 322 321 322 321 320 319 318 319 318 317 318 320 320 320
319 317 316 315 317 316 318 318 317 317 317 318 319 320 320 320 321 321 321 321 322 323 322 321 320 320 320 320 320 321 320 320 321 320 319 319 317 318 314 313 312 309 309 310 312 313 313 313 318 314 313 313 313 312 309 310 312 313 314 317 318 318 319 319 319 320 317 317 318 319 319 320 321 320
312 312 312 313 314 315 315 315 316 317 317 317 318 318 322 321 320 321 321 322 322 323 323 323 322 322 322 321 321 320 320 321 321 322 323 319 318 316 313 312 311 310 312 310 310 311 313 312 311 311 313 322 322 319 316 315 315 315 315 314 314 315 317 318 319 319 321 322 322 320 319 320 321 321
312 312 312 313 314 315 315 315 315 317 317 317 317 318 318 319 320 321 321 322 323 324 324 324 324 324 323 322 322 322 322 322 322 321 322 320 319 316 315 312 311 311 310 310 310 310 310 310 309 310 308 310 312 312 316 317 314 314 311 310 312 313 316 320 321 319 320 321 321 319 319 319 319 320
310 310 310 311 312 313 314 315 317 317 316 317 317 317 318 318 320 321 321 322 322 323 323 323 323 323 323 323 323 323 323 323 322 321 320 319 317 317 315 313 314 313 311 310 311 311 311 309 308 308 305 303 305 306 309 315 316 311 310 309 310 313 316 316 316 314 316 316 318 318 317 316 317 318
308 310 310 311 312 313 314 315 315 315 316 317 318 318 319 320 321 322 322 321 321 322 321 321 320 321 321 322 322 322 322 321 320 321 320 320 319 318 316 315 316 314 312 311 311 312 312 309 309 306 304 303 302 305 309 310 313 313 310 310 311 314 317 316 312 312 312 314 314 316 316 317 316 317
309 310 310 312 313 314 315 316 317 318 318 319 319 320 321 321 322 322 323 321 322 322 322 321 322 321 321 320 319 319 319 320 319 319 319 319 318 317 315 314 313 313 313 313 313 312 310 309 308 307 305 303 301 303 304 306 309 313 312 312 311 313 317 315 311 309 310 311 314 316 316 315 316 317
308 310 312 313 314 315 316 317 318 319 319 320 320 321 321 322 322 322 322 322 323 323 323 322 322 322 322 322 321 321 319 318 317 317 317 318 317 316 316 314 313 312 310 310 310 310 310 308 309 308 307 304 303 303 306 305 309 313 311 310 311 310 313 314 313 311 309 309 310 311 313 315 317 318
311 313 313 314 315 316 317 319 320 320 321 322 323 323 323 323 323 324 324 324 324 324 323 322 322 322 322 322 322 322 321 320 319 319 318 318 319 318 316 316 314 313 311 310 310 309 308 309 311 309 308 308 310 311 310 311 313 315 312 311 311 312 312 313 313 311 312 312 312 311 312 312 313 314
317 316 317 319 319 320 321 321 322 323 324 325 325 326 326 325 324 324 325 325 325 324 323 323 323 322 322 322 322 321 320 320 320 320 320 319 319 319 320 320 317 315 312 310 310 309 309 310 314 321 319 311 314 316 313 309 308 308 310 312 312 312 312 311 312 312 312 315 314 312 312 311 312 314
317 318 319 320 320 321 322 322 324 325 326 326 326 326 325 325 324 327 326 325 324 323 323 323 323 323 323 323 323 322 321 320 319 319 319 319 317 318 321 319 317 316 312 311 310 310 312 311 316 319 317 315 315 310 306 309 307 308 310 311 313 312 312 312 311 312 311 313 314 313 312 312 312 312
320 320 321 323 324 325 326 327 326 326 325 326 326 326 325 325 324 323 322 321 321 321 321 322 323 323 323 323 322 322 321 320 320 319 319 319 318 318 317 317 317 317 316 314 313 312 311 310 309 313 313 311 313 313 307 309 309 309 308 309 312 312 312 312 311 311 310 309 310 313 314 313 313 309
321 323 325 326 326 326 325 324 324 325 325 325 325 323 320 318 315 314 314 314 313 313 315 316 317 318 319 320 321 321 321 320 320 319 319 319 319 319 318 317 318 317 316 316 315 313 311 310 311 313 311 309 310 312 310 310 309 311 311 310 312 309 309 311 313 312 311 311 310 310 311 312 315 317
324 324 325 324 323 323 324 324 322 320 318 317 314 312 312 309 311 310 308 307 307 308 309 311 312 314 316 317 317 317 319 322 322 321 319 318 318 318 318 318 318 317 316 315 313 313 312 311 309 310 309 309 308 310 314 313 310 309 309 310 312 311 309 313 310 310 309 311 310 309 311 313 314 315
Wind_Speed
3 4 4 3 5 5 5 5 1 1 2 2 1 4 2 4 4 2 3 3 2 4 3 2 5 6 7 7 7 5 5 7 9 5 6 6 6 11 15 16 17 19 20 20 20 18 15 12 11 11 11 12 12 12 13 14 14 15 15 15 13 13 11 8 19 20 16 16 17 18 21 21 21 21
3 4 5 5 6 4 6 5 5 4 3 4 5 3 2 4 5 2 3 2 1 3 4 0 2 6 8 7 7 5 6 12 10 7 6 7 7 15 15 16 16 16 18 19 19 19 16 11 10 10 11 12 12 12 12 13 15 15 15 14 14 14 13 10 10 14 10 15 19 20 21 21 21 21
4 4 5 5 6 5 5 6 6 6 5 5 6 6 6 5 4 5 3 3 4 1 5 4 3 3 6 6 5 6 6 9 10 7 8 7 14 15 11 16 15 15 16 17 17 17 16 12 9 9 11 10 11 11 11 11 12 15 15 15 14 14 13 11 10 7 17 21 21 19 19 20 22 22
4 4 5 4 5 5 6 7 6 6 6 5 6 6 7 6 4 4 3 4 3 2 3 4 7 5 5 5 8 8 6 7 12 6 7 8 11 7 7 12 15 15 15 17 17 15 17 13 11 11 11 11 9 10 10 9 10 12 14 14 14 14 13 12 11 11 12 18 20 19 22 21 21 20
3 4 4 4 3 4 7 5 6 6 6 5 6 5 6 6 4 4 4 3 4 4 3 4 5 5 4 8 7 8 6 6 6 7 6 6 6 6 6 7 11 14 15 16 16 14 15 15 15 14 13 11 10 9 7 8 8 10 12 13 13 13 13 12 13 11 9 15 20 21 19 20 22 21
3 3 4 4 3 4 5 5 6 4 5 4 6 5 5 5 5 3 4 3 3 4 5 8 7 6 4 6 6 5 5 5 5 6 7 6 5 6 6 6 7 13 14 15 15 13 13 14 14 14 13 12 10 9 7 7 7 8 10 11 11 11 12 13 12 12 10 9 17 21 22 23 18 17
3 3 3 3 2 3 6 4 4 4 4 3 4 3 3 4 3 3 2 3 4 4 4 2 5 6 4 3 4 5 3 3 4 7 7 7 6 6 6 6 6 10 14 14 14 13 13 14 13 13 13 11 8 8 8 7 6 7 9 10 10 11 11 12 13 12 12 9 13 19 21 20 22 21
3 3 3 1 2 3 5 4 3 3 3 3 3 4 3 3 3 3 3 4 3 2 4 4 3 4 3 2 2 3 4 5 6 4 6 6 7 7 7 6 6 8 14 14 14 13 14 14 14 13 14 13 9 7 7 6 6 7 8 9 10 11 11 12 12 12 12 11 12 16 17 17 21 21
3 3 4 1 1 3 4 3 3 3 4 3 3 3 3 3 3 3 3 3 3 4 4 4 2 3 2 1 2 3 5 5 4 5 5 6 6 7 6 4 5 9 13 12 12 12 13 13 14 14 14 14 10 8 8 7 7 7 8 9 9 11 12 12 11 11 12 11 10 15 18 17 16 17
3 4 4 2 2 3 4 3 2 2 3 2 3 3 4 4 3 4 4 3 3 4 3 2 4 3 2 3 2 2 4 5 6 7 8 6 5 6 9 8 5 5 4 6 7 8 9 12 14 13 12 14 12 8 8 8 8 7 8 9 9 10 12 12 11 10 11 11 9 11 15 17 18 19
3 3 3 3 2 3 4 3 3 3 1 0 0 0 0 1 3 3 3 3 4 3 3 3 1 3 3 1 4 4 2 3 2 4 7 9 8 6 5 8 7 5 7 7 10 11 11 12 9 12 13 13 13 9 7 7 8 7 7 8 9 10 11 12 12 11 10 11 10 9 13 15 18 19
3 3 3 4 3 4 4 4 3 4 3 1 1 2 1 0 1 1 2 3 3 3 3 1 4 2 3 6 3 3 3 3 3 2 3 7 8 9 7 3 6 7 6 8 9 9 10 10 11 13 11 12 14 11 7 6 7 8 7 7 8 9 11 12 13 12 11 10 10 9 10 13 17 17
3 3 3 4 4 4 7 8 6 6 6 4 2 3 2 1 1 1 1 1 2 2 2 5 3 4 6 5 5 6 3 4 4 4 3 4 6 6 8 7 2 2 5 8 7 7 6 7 7 7 8 8 11 10 7 5 7 8 7 8 9 9 11 12 13 13 12 10 9 10 10 12 14 18
4 3 4 4 9 10 7 6 5 3 5 2 7 5 3 3 3 3 2 2 3 2 3 5 3 5 6 6 4 3 3 3 2 4 4 6 6 6 9 7 3 3 5 7 9 8 5 5 6 7 7 7 8 7 7 6 5 6 8 8 9 10 11 12 13 13 13 12 10 10 10 11 13 14
4 4 4 4 7 5 5 3 5 4 4 6 8 8 2 6 6 2 2 3 3 3 4 4 3 3 5 7 5 4 6 3 2 3 3 3 4 4 3 5 9 3 7 6 6 8 6 4 6 7 7 7 8 8 8 12 10 8 9 10 10 11 11 12 13 14 13 13 12 10 10 11 13 15
3 4 5 5 4 3 4 3 3 5 6 5 6 7 7 7 2 2 3 3 3 2 3 5 5 3 5 5 4 4 2 4 4 3 3 2 2 4 4 4 4 6 4 5 5 7 6 3 4 6 6 7 6 8 11 15 12 10 10 10 11 11 11 12 12 13 14 13 13 11 10 10 12 15
3 4 5 5 5 4 9 5 4 4 4 6 6 5 7 6 6 6 7 8 3 1 3 4 5 5 4 4 4 2 2 1 4 4 5 3 3 3 5 5 3 8 4 5 4 4 6 4 5 6 6 6 6 8 10 14 14 12 11 11 11 12 11 11 12 13 14 13 13 12 10 10 12 15
3 5 6 5 5 5 5 4 5 4 4 3 1 2 3 3 6 8 8 9 10 7 2 4 5 5 4 5 4 5 1 2 5 5 6 5 4 5 6 5 5 7 5 3 3 3 4 3 4 6 7 5 6 7 10 12 11 11 12 11 11 12 12 11 12 13 13 13 13 12 12 10 11 14
4 5 4 4 6 5 5 5 5 4 5 5 4 3 4 4 4 4 4 5 4 4 3 4 7 7 5 6 7 6 4 4 5 5 6 6 5 5 3 4 5 7 5 3 2 5 4 3 4 5 6 6 7 6 9 11 11 11 12 12 11 12 12 11 11 12 12 12 13 13 12 11 10 11
4 5 5 4 4 5 6 8 11 9 5 4 4 4 4 4 5 5 6 8 8 6 5 4 6 6 6 7 5 5 5 5 5 5 4 2 2 3 5 6 4 4 6 3 3 3 3 3 3 5 6 5 7 7 7 9 11 11 12 12 11 11 11 10 10 11 11 11 12 13 13 12 10 10
4 5 4 5 5 5 6 9 10 10 8 5 5 5 5 5 4 7 7 7 10 10 9 8 9 10 9 9 10 11 10 6 5 4 4 6 1 2 5 4 2 6 3 1 2 1 5 4 3 6 5 5 6 6 7 7 8 11 12 13 11 11 11 9 9 10 11 11 12 13 13 12 10 10
3 5 10 8 6 6 6 9 10 10 6 5 6 5 5 6 6 8 7 5 5 7 8 9 9 9 9 10 11 10 10 10 6 3 6 5 1 4 4 5 3 5 6 5 3 1 5 5 3 4 5 4 3 5 6 6 6 9 9 11 11 11 10 9 9 10 10 11 12 13 14 12 10 5
5 4 6 10 7 7 9 12 11 11 8 5 6 6 5 6 7 9 7 6 7 6 5 5 4 6 8 6 5 7 12 13 10 4 6 4 5 6 6 5 4 5 5 5 3 1 4 4 5 1 4 4 5 4 4 5 7 6 6 7 7 10 11 10 9 9 10 10 12 13 13 12 7 5
6 5 5 5 7 8 7 9 11 11 11 7 6 4 5 7 10 9 6 7 6 7 6 7 5 7 7 6 6 6 6 6 4 6 5 5 6 6 6 5 4 5 4 4 3 1 3 2 6 1 2 3 5 5 5 7 6 6 6 6 6 8 9 8 6 8 9 10 12 13 13 11 5 5
6 6 6 6 7 8 8 8 8 10 12 11 7 6 7 8 10 7 4 8 9 6 6 7 7 7 6 6 6 6 6 6 6 5 5 3 6 6 6 6 6 7 7 8 3 1 3 3 6 3 4 2 4 5 5 6 7 5 6 5 6 7 6 6 4 5 6 8 10 12 11 10 6 7
6 6 6 6 7 10 10 10 10 10 9 11 7 8 12 14 14 10 8 7 6 6 7 7 7 8 7 7 6 6 6 6 6 5 6 4 5 6 7 7 7 5 7 7 5 4 2 4 6 5 5 3 6 4 6 7 7 7 6 6 5 7 6 6 5 5 4 4 5 6 10 13 9 8
7 6 5 6 11 12 11 9 8 8 9 7 7 13 14 14 16 12 8 7 7 7 7 7 8 9 8 7 7 6 7 6 5 5 5 5 5 6 7 7 8 9 9 7 3 2 3 4 4 5 7 4 5 6 6 5 6 4 6 6 6 6 6 5 5 4 4 4 5 9 10 9 8 7
6 6 6 7 10 11 12 11 11 12 11 9 12 13 14 15 12 8 7 7 8 7 7 8 8 9 8 7 7 8 7 6 6 6 5 6 5 6 7 7 8 8 8 8 7 5 5 6 7 6 5 5 5 6 7 6 6 7 8 8 6 6 5 5 5 3 4 4 5 5 5 6 5 4
7 8 12 13 13 12 13 13 13 11 12 15 15 16 16 13 7 7 7 8 6 7 8 9 9 8 9 8 8 7 5 5 4 4 5 4 5 5 5 6 6 6 6 6 6 6 6 6 8 7 5 4 5 6 4 7 5 7 6 7 7 5 6 6 3 3 4 3 4 5 5 6 6 6
11 12 12 14 13 12 11 8 6 6 8 11 14 15 14 8 7 7 7 7 7 9 9 9 9 10 8 7 6 5 5 5 7 5 5 5 6 5 5 5 7 7 7 7 6 6 6 6 7 6 5 5 5 6 6 6 7 8 5 6 7 7 4 2 4 3 4 4 4 4 4 4 5 5
6 7 8 7 8 8 12 12 12 11 11 10 9 8 7 7 7 7 7 8 9 9 8 9 9 9 8 5 4 6 5 7 7 6 6 6 7 6 5 5 7 7 7 5 5 5 6 6 6 4 3 5 5 6 7 4 6 8 8 6 4 5 5 6 5 4 3 4 4 5 4 4 4 5
5 6 7 9 7 7 7 7 6 6 6 7 7 8 7 7 7 9 11 10 8 9 9 9 8 8 7 6 7 5 6 7 7 5 5 6 7 6 3 2 5 6 7 6 7 5 5 4 5 5 6 6 5 6 3 3 6 7 7 5 5 6 5 6 6 5 3 3 4 5 5 4 4 4
5 4 6 6 7 6 6 6 7 7 7 7 7 8 8 7 7 7 6 8 9 9 7 8 8 9 7 7 6 6 6 7 7 5 5 6 6 5 4 7 7 5 6 8 6 6 6 6 4 4 5 5 7 7 3 6 5 4 4 5 5 6 6 6 4 4 2 3 5 5 6 5 3 3
4 6 6 7 7 7 6 7 7 8 7 7 7 7 7 6 6 6 7 7 8 7 7 7 7 8 7 8 7 6 7 7 6 6 6 6 6 5 6 7 7 7 6 7 7 7 6 5 5 5 2 3 4 5 6 5 6 5 4 5 4 5 6 5 3 3 2 3 4 6 6 6 4 3
4 6 7 8 7 7 6 7 8 8 7 7 7 7 7 6 7 7 7 7 6 6 7 7 7 7 7 8 7 7 7 8 7 6 5 5 6 6 7 7 7 7 7 7 7 7 5 6 5 5 5 4 4 3 4 4 3 5 3 4 3 4 5 2 2 3 4 3 3 5 6 5 5 4
7 6 7 8 8 7 7 8 7 7 7 7 7 7 7 7 6 7 8 7 5 6 6 7 7 7 7 7 7 7 7 7 6 6 6 5 6 6 6 7 8 8 7 7 8 7 5 6 4 4 4 3 3 6 4 3 4 3 1 3 4 3 3 3 1 1 3 2 3 3 5 5 6 5
8 7 6 7 8 7 8 8 7 7 7 7 7 6 7 7 7 7 7 6 6 6 7 7 7 7 7 7 7 6 6 6 7 7 8 8 6 6 6 7 7 8 7 8 7 7 4 6 4 5 4 3 3 5 7 2 4 4 2 3 3 2 3 3 3 3 2 0 2 0 3 4 6 6
7 7 7 7 7 7 7 7 7 7 7 6 7 7 7 7 7 7 6 6 7 7 6 6 7 6 7 6 7 7 6 6 7 8 8 7 7 6 6 8 8 7 8 8 6 7 6 7 6 6 6 5 5 5 5 4 1 4 5 4 3 4 1 2 3 5 4 1 2 2 2 4 5 5
7 7 7 7 7 6 7 8 7 7 7 7 6 7 7 7 6 6 6 6 6 7 7 6 6 7 7 7 7 7 8 8 8 7 7 6 5 7 7 7 7 7 6 7 6 6 5 6 7 7 7 6 6 5 5 3 4 3 4 6 3 2 3 2 5 5 3 3 3 2 4 5 7 11
7 6 7 7 7 7 7 7 7 6 6 7 7 6 6 6 6 6 6 6 6 6 6 7 7 7 6 7 7 7 8 8 9 7 6 6 6 7 7 7 7 7 6 7 7 6 6 7 7 8 8 8 8 7 5 3 2 2 2 5 7 4 3 2 3 3 4 5 2 2 5 5 5 2
4 5 7 6 6 6 7 7 7 6 6 6 6 7 6 5 6 5 5 6 5 5 5 5 5 5 6 6 6 6 7 7 7 7 8 7 8 8 10 8 5 6 7 8 8 7 7 9 11 13 8 3 2 4 2 1 4 3 4 4 5 5 5 5 3 2 4 2 1 4 5 4 4 6
5 6 6 6 6 6 6 6 6 5 5 4 5 5 5 5 5 8 7 6 6 5 5 5 5 5 6 6 6 6 6 6 6 6 6 6 7 7 7 3 5 6 6 8 8 8 9 7 4 3 3 5 4 4 4 5 6 5 4 2 2 3 2 1 3 4 3 3 3 4 3 3 1 4
5 5 5 6 5 5 4 4 4 4 5 5 4 4 4 4 4 7 7 8 7 7 7 6 6 5 5 6 6 6 6 6 6 6 6 6 7 8 7 8 7 6 6 7 7 7 6 3 4 3 5 6 5 6 7 7 6 5 3 3 2 0 1 1 3 2 2 4 1 3 4 2 0 2
4 5 5 4 4 4 4 4 4 4 4 4 5 6 7 7 7 7 6 7 7 7 6 7 7 7 8 7 8 7 6 6 6 7 7 6 6 6 7 5 5 6 7 7 7 8 5 3 4 4 6 7 6 6 7 6 6 5 6 3 1 2 3 2 3 5 5 3 3 6 6 10 12 7
4 4 4 4 3 4 4 4 6 7 7 7 7 6 6 7 6 5 6 7 7 8 8 8 7 7 7 7 7 8 8 9 7 6 6 6 7 6 6 7 7 5 5 4 3 5 4 4 3 3 4 7 6 7 8 7 7 4 3 3 5 4 3 1 2 1 1 3 5 9 10 6 6 8
Wind_Direction
39 44 54 63 42 6 356 3 32 315 330 65 141 154 147 147 118 56 22 340 350 321 351 8 309 347 351 350 349 3 10 15 34 22 18 4 357 359 12 3 358 356 355 352 347 343 338 334 330 338 349 352 0 4 8 6 6 0 355 349 349 343 327 257 239 241 228 227 228 225 226 224 220 218
58 50 42 36 36 5 15 2 -0 16 3 43 60 44 76 134 118 156 78 353 260 305 323 31 307 334 349 353 349 360 359 14 30 20 15 6 356 6 1 359 354 350 350 349 345 342 339 327 320 325 342 346 352 2 5 3 5 4 1 355 349 349 349 336 264 242 231 243 233 225 222 220 217 218
62 47 41 34 36 19 24 18 20 30 28 35 72 61 48 50 84 110 105 54 306 164 351 310 320 335 336 352 352 1 0 10 26 19 11 1 4 6 351 351 349 348 347 347 344 346 348 338 330 328 336 340 342 350 354 359 1 2 1 359 353 346 344 338 319 253 214 221 229 231 226 213 213 207
76 63 48 34 41 27 38 29 21 30 26 21 45 56 64 51 54 88 103 84 343 303 344 320 312 3 342 11 15 356 6 3 17 14 6 355 4 355 345 341 344 345 343 344 347 356 3 352 350 345 338 332 329 336 344 349 358 357 358 357 355 349 339 333 329 319 245 225 223 224 231 223 215 210
84 80 69 45 35 58 59 36 33 39 41 37 51 54 60 58 38 71 84 67 2 316 336 338 340 343 11 30 10 10 2 7 357 4 355 349 352 349 339 334 337 342 341 343 346 356 2 360 352 346 340 331 320 323 324 336 345 351 350 349 350 348 341 333 327 319 305 234 224 225 224 225 222 210
93 78 69 41 36 68 76 57 50 51 54 56 57 47 62 61 43 11 99 75 65 349 333 354 346 356 30 39 8 16 359 351 351 357 354 343 341 342 338 337 334 333 335 339 342 346 351 352 349 341 336 329 317 307 310 317 328 339 338 338 341 342 339 336 323 323 311 276 228 216 224 224 222 221
102 78 65 37 42 69 73 58 58 55 60 53 66 54 51 57 51 40 61 88 41 14 326 328 347 349 346 45 360 348 342 337 351 356 348 340 333 338 339 337 331 325 330 334 335 337 342 345 343 341 334 323 312 293 290 300 312 316 324 328 336 338 340 335 329 316 314 284 246 226 221 213 215 217
116 124 85 39 52 77 84 76 67 57 65 59 54 47 28 51 36 58 41 47 84 44 8 330 338 323 332 317 323 329 352 358 349 344 325 331 333 330 335 337 325 320 328 333 334 333 336 340 339 337 335 326 310 293 281 285 289 299 310 322 329 337 336 338 330 316 309 298 236 225 225 225 213 206
151 146 126 152 102 86 88 63 69 48 52 40 51 42 13 29 30 43 59 49 56 40 7 313 298 306 319 284 291 358 8 337 342 334 333 326 321 322 322 320 318 325 334 332 329 330 332 335 337 333 332 329 313 297 289 279 279 283 301 314 326 332 334 334 333 320 308 302 269 228 217 224 218 209
181 149 147 165 140 109 107 116 95 71 52 41 45 31 12 11 16 24 27 38 32 27 339 292 301 328 350 331 305 314 10 351 339 342 335 332 337 343 342 339 334 332 327 333 330 333 334 333 332 333 330 329 319 298 292 286 281 282 293 308 322 329 329 330 332 327 309 298 284 252 226 218 215 205
196 158 150 158 173 142 140 142 143 127 95 95 315 201 128 65 37 8 14 15 28 29 352 312 288 317 305 320 309 313 4 346 335 331 343 348 339 347 359 332 329 333 334 327 332 336 335 333 335 333 334 331 326 302 284 285 288 284 286 304 321 326 325 326 329 328 316 297 284 266 243 214 210 208
181 175 168 162 193 174 165 165 190 157 159 194 266 254 192 173 49 10 346 2 10 3 355 293 308 311 288 330 298 309 4 6 330 1 5 346 337 334 330 304 303 323 344 346 339 337 340 344 340 340 340 337 337 319 293 291 290 285 289 306 319 321 320 322 324 327 323 304 284 269 247 224 211 208
182 183 186 188 200 210 176 176 183 198 183 165 204 251 193 206 189 252 347 340 322 334 350 317 315 326 322 306 323 328 339 344 306 297 5 340 329 322 325 327 274 299 341 336 336 336 341 337 336 334 336 337 348 337 319 305 295 285 289 306 313 314 316 318 321 325 325 315 290 267 252 233 214 214
191 193 203 207 208 207 183 186 187 201 256 168 184 217 208 194 197 233 259 281 264 257 289 283 285 320 307 301 305 293 271 264 298 336 353 352 324 343 338 327 329 341 7 353 345 327 329 345 331 341 339 330 348 343 334 308 295 283 288 297 304 309 312 314 318 322 325 321 304 273 254 240 222 204
177 211 226 226 232 213 200 219 228 234 281 7 14 22 52 177 177 178 215 255 229 247 254 247 281 269 282 292 289 274 279 271 258 276 307 317 335 358 356 314 314 334 31 347 338 323 320 3 345 335 333 333 338 339 334 318 302 294 292 294 297 303 307 312 316 321 323 324 316 292 260 241 229 210
197 198 219 230 236 220 221 220 268 279 290 327 5 10 12 9 32 168 179 222 267 225 247 264 255 243 265 272 289 277 274 292 303 286 299 285 307 312 317 287 288 280 20 344 322 310 301 340 339 339 327 327 326 322 325 331 322 303 295 289 292 296 302 307 313 319 322 324 320 309 281 249 230 223
210 200 210 227 231 229 229 220 223 243 275 295 329 352 345 348 337 336 326 320 305 193 220 231 257 231 236 259 266 228 265 244 294 302 309 291 266 237 262 263 265 296 328 335 293 297 298 333 334 327 314 318 320 324 328 329 334 321 302 294 291 293 296 302 308 316 322 324 324 316 297 264 241 226
230 197 201 203 219 232 246 231 218 231 238 253 320 354 349 318 318 320 315 314 314 323 243 216 230 249 179 231 245 267 259 282 288 297 294 289 289 274 258 259 269 278 294 264 271 281 291 308 327 315 307 318 320 318 312 318 325 325 317 302 294 293 293 295 302 312 319 324 324 320 308 276 249 237
242 235 213 191 206 223 228 234 216 214 229 238 265 294 295 296 287 288 284 278 277 286 273 212 222 243 232 230 248 258 251 236 248 244 252 261 259 270 285 291 262 279 273 252 239 271 274 306 328 296 301 315 314 308 308 309 313 321 329 321 305 299 295 294 299 309 318 322 323 321 312 289 260 239
263 242 237 217 216 218 218 231 234 231 207 213 234 255 272 291 294 288 262 262 265 264 261 232 221 223 228 237 250 266 269 270 264 257 269 289 265 297 303 287 301 281 284 254 255 272 290 284 293 293 298 307 309 308 304 303 308 318 327 323 311 305 300 296 300 310 318 323 323 320 314 299 271 237
263 263 242 230 228 230 235 236 228 242 212 197 220 237 259 270 289 281 287 260 256 260 276 263 242 248 266 280 280 279 281 276 269 266 306 293 239 278 292 290 287 279 294 269 205 215 298 292 277 297 290 299 300 299 296 297 299 311 317 318 313 306 301 292 300 311 320 326 324 319 315 305 285 241
282 264 264 244 226 241 250 251 242 236 230 199 222 233 250 269 273 276 273 280 264 260 265 265 264 270 271 269 275 281 284 284 280 247 271 261 165 248 246 266 264 293 302 266 174 328 259 281 268 276 286 302 273 281 286 285 300 310 309 311 310 306 298 289 299 311 320 325 324 320 314 307 296 254
291 282 280 278 266 235 243 250 250 247 239 221 224 228 230 249 260 258 264 273 285 291 294 280 278 281 276 280 278 280 288 293 297 260 242 238 182 234 252 254 301 318 285 260 170 302 281 317 277 242 326 315 286 276 267 300 302 300 304 303 305 302 299 289 296 308 319 324 323 319 314 311 298 248
301 300 302 287 287 282 268 264 263 255 242 229 233 223 222 239 255 258 258 257 255 267 265 269 265 266 275 282 284 285 284 283 269 272 255 210 192 211 236 237 223 231 248 271 153 191 266 238 278 247 205 277 300 297 307 302 299 297 293 297 304 305 304 296 300 307 318 323 319 316 312 313 288 246
271 283 284 285 274 274 282 289 276 256 248 245 243 229 231 230 244 257 257 264 262 271 277 280 282 277 277 274 271 273 277 273 270 269 277 229 194 196 213 227 232 240 253 262 235 140 249 264 284 302 292 193 251 301 293 297 292 287 286 291 300 300 303 291 289 304 320 320 315 312 310 306 284 239
271 263 265 272 276 279 282 287 287 276 263 259 253 247 241 251 258 262 259 266 270 267 272 276 280 281 280 277 270 263 258 259 259 254 260 246 208 212 208 203 215 240 263 261 197 170 205 286 252 267 270 282 282 278 302 298 287 279 284 291 282 287 295 292 297 302 315 317 311 314 311 308 294 251
258 267 267 271 278 280 283 280 275 272 267 266 250 250 255 256 257 260 266 264 267 266 266 268 271 272 271 274 273 269 265 259 246 244 242 240 229 230 230 225 215 226 249 270 274 192 175 246 267 249 266 262 280 293 286 281 293 295 305 293 300 296 295 282 281 293 307 313 310 306 307 298 286 262
258 266 267 267 275 285 287 287 286 286 283 269 265 262 260 260 261 262 261 258 254 261 265 263 264 266 263 256 264 262 255 256 256 254 247 246 236 230 237 236 238 235 248 258 265 246 202 231 266 262 234 249 258 270 279 271 271 280 291 297 291 285 291 286 273 292 308 311 303 310 315 324 311 297
254 257 264 274 279 280 281 279 279 277 268 263 261 263 263 264 266 258 251 253 256 256 256 257 259 261 257 247 249 253 254 258 262 263 268 256 251 238 235 243 245 251 250 248 244 241 221 215 241 264 267 218 212 246 233 261 280 287 282 304 311 307 311 296 265 274 293 295 302 305 318 317 314 305
255 263 270 274 277 278 274 275 263 261 260 258 259 259 260 258 252 250 250 255 248 250 255 255 254 256 259 253 244 244 243 247 252 246 259 272 275 251 248 266 270 252 240 244 248 255 248 233 232 237 255 264 218 245 252 264 282 271 281 278 275 299 273 310 301 288 294 299 291 297 292 301 297 314
265 271 268 262 260 261 268 268 268 268 273 278 274 270 262 255 251 251 242 244 246 252 253 257 256 257 259 266 263 253 237 245 251 227 243 245 253 250 238 227 259 275 266 255 247 245 243 239 239 200 227 259 264 233 255 235 263 280 284 275 284 286 294 304 291 290 293 284 284 282 284 290 306 323
268 273 279 285 288 287 290 283 283 272 265 263 269 269 264 257 254 254 254 251 247 249 250 257 268 273 268 262 256 258 248 247 253 231 223 228 248 241 219 214 250 249 268 275 280 268 244 241 247 227 209 233 259 277 274 234 249 266 276 287 291 284 282 283 283 287 277 296 306 302 290 283 292 310
285 284 287 287 285 282 280 289 284 283 282 275 262 263 264 263 262 261 259 257 254 253 250 253 254 261 263 260 255 251 255 253 253 236 229 233 229 248 200 229 243 242 247 261 260 279 285 286 275 254 234 231 230 240 255 293 278 236 252 291 302 294 297 288 261 268 322 330 303 301 309 293 265 273
280 278 282 280 279 285 285 280 280 277 275 277 278 272 266 261 260 255 254 252 256 257 250 251 253 255 255 258 253 244 247 259 252 246 231 248 226 229 223 231 240 238 239 248 256 258 279 284 292 312 321 269 239 215 197 203 262 287 276 283 288 290 284 295 306 318 290 277 295 307 309 311 301 301
248 283 284 280 279 273 271 270 272 276 277 278 276 277 277 274 267 268 266 262 256 254 255 254 249 252 253 257 256 250 249 253 259 252 238 239 243 230 232 230 240 239 235 243 250 249 241 263 282 306 326 348 348 308 244 208 215 259 291 283 251 263 291 300 2 339 353 345 350 325 314 297 318 346
270 251 259 273 272 271 270 269 270 270 269 269 271 275 281 277 268 262 266 264 259 263 264 263 260 257 256 256 257 253 255 258 262 264 262 242 241 241 234 234 236 240 232 233 243 242 233 250 246 254 267 305 332 315 306 246 188 179 210 289 301 307 291 306 339 5 14 344 13 351 316 314 317 323
271 267 254 257 264 264 264 270 271 269 266 268 272 270 271 276 276 269 267 275 274 267 263 264 265 264 265 266 265 262 258 258 264 262 262 260 246 247 245 246 239 238 235 237 232 242 221 234 222 201 215 257 277 273 269 289 261 220 173 235 277 264 293 304 339 330 289 333 353 310 285 301 304 303
253 262 265 261 261 265 265 266 270 272 273 274 277 282 279 272 276 279 281 284 278 276 271 264 266 271 270 265 262 263 262 260 258 258 256 256 252 248 242 245 247 237 235 241 232 233 219 220 224 209 194 218 246 262 283 304 330 250 204 190 221 277 325 314 294 270 286 282 189 247 264 282 274 286
246 257 257 264 269 273 278 278 276 278 283 286 284 281 284 286 279 278 279 273 278 281 283 276 267 265 268 268 262 261 264 266 264 256 253 249 236 241 244 242 251 253 244 250 241 239 216 212 223 215 196 199 205 215 200 221 255 253 209 216 193 237 277 192 252 263 264 292 283 269 246 244 266 269
244 242 256 261 268 269 271 275 279 277 282 280 277 274 271 280 281 282 285 285 281 278 275 275 279 279 272 266 267 270 269 265 261 255 248 250 248 248 245 238 241 247 247 250 249 240 221 223 219 215 207 207 218 215 192 183 214 266 228 229 210 186 210 151 221 249 283 246 240 348 305 328 331 321
255 256 259 258 265 271 275 280 280 283 282 285 286 289 290 287 293 287 283 294 295 297 299 298 288 278 275 276 274 267 264 261 258 255 252 251 255 253 251 246 248 247 245 251 241 239 228 225 219 210 202 189 146 91 72 329 291 284 260 229 202 202 198 201 212 202 238 282 209 258 280 286 304 324
271 271 275 271 268 270 269 273 284 290 292 290 287 292 298 303 299 315 311 316 316 311 304 302 295 290 287 290 287 284 277 269 260 257 255 251 256 255 256 246 244 253 236 245 242 234 234 227 229 211 144 128 149 163 210 228 246 264 257 266 246 171 127 178 235 227 225 247 240 271 277 308 353 306
265 266 274 281 281 282 282 295 306 308 302 302 311 325 324 335 353 11 19 10 6 2 350 339 328 320 316 308 298 291 282 276 273 265 262 251 256 259 253 245 238 240 253 259 266 269 270 263 253 192 151 170 189 177 210 227 230 234 265 262 244 274 303 251 245 225 106 88 97 233 229 240 62 274
270 268 277 281 290 296 307 298 297 300 326 352 6 19 27 31 28 23 24 21 9 2 353 353 348 346 343 338 331 316 295 283 281 289 282 276 256 251 254 255 243 228 237 246 267 273 272 266 251 211 170 202 192 183 219 230 245 233 231 233 211 178 217 245 245 258 255 233 28 353 287 240 235 257
273 273 280 303 308 306 319 2 31 37 37 34 39 39 35 36 28 22 25 19 10 355 351 351 346 339 337 336 339 337 331 329 311 290 279 271 272 268 263 262 262 247 233 216 225 262 263 263 297 284 228 213 193 198 210 208 223 230 212 195 223 215 212 197 208 260 346 318 5 11 356 342 225 233